Retour au catalogue

FENGYUN 1C DEB *

LostPO
NORAD 47038·DEBRIS·🇨🇳 China

Lancé May 10, 1999 depuis Taiyuan Satellite Launch Center

Loading…

Prochains Passages (prochaines 24 heures)

TLE

PériméSource: Space-Track

Époque: Aug 30, 2022, 08:18 UTC

1 47038U 99025FBQ 22242.34630881  .00001468  00000-0  70890-3 0  9998
2 47038  97.8637 279.6262 0141151 343.8844  79.0405 14.14794560536353

Suivez FENGYUN 1C DEB * en temps réel avec AllMySat

Download on the App Store